• In Hungary
  • List of Countries
  • For 7 days
  • Water Temperature
  • Satellite Maps
  • Weather Map
  • News
  • Weather Widgets
  • user-avatar
    Login

    Hourly Weather Krasnooktyabrskiy

    Today, 23 May, Wednesday

    Time Temperature Precipitation Wind Pressure Humidity
    00:00 +13°C° 0 mm 1 mps 760 mmHg 67%
    01:00 +13°C° 0 mm 1 mps 760 mmHg 67%
    02:00 +12°C° 0 mm 1 mps 760 mmHg 68%
    03:00 +12°C° 0 mm 1 mps 759 mmHg 68%
    04:00 +14°C° 0 mm 2 mps 759 mmHg 66%
    05:00 +15°C° 0 mm 2 mps 759 mmHg 65%
    06:00 +16°C° 0 mm 2 mps 759 mmHg 63%
    07:00 +17°C° 0 mm 2 mps 759 mmHg 59%
    08:00 +19°C° 0 mm 2 mps 758 mmHg 56%
    09:00 +20°C° 0 mm 3 mps 758 mmHg 55%
    10:00 +22°C° 0 mm 3 mps 758 mmHg 52%
    11:00 +23°C° 0 mm 4 mps 758 mmHg 49%
    12:00 +25°C° 0 mm 5 mps 758 mmHg 46%
    13:00 +26°C° 0 mm 5 mps 757 mmHg 45%
    14:00 +26°C° 0 mm 5 mps 757 mmHg 45%
    15:00 +26°C° 0 mm 5 mps 756 mmHg 44%
    16:00 +26°C° 0 mm 5 mps 755 mmHg 48%
    17:00 +25°C° 0 mm 4 mps 755 mmHg 52%
    18:00 +23°C° 0 mm 4 mps 754 mmHg 56%
    19:00 +21°C° 0.1 mm 4 mps 754 mmHg 62%
    20:00 +20°C° 0.1 mm 3 mps 754 mmHg 69%
    21:00 +18°C° 0.1 mm 3 mps 754 mmHg 75%
    22:00 +17°C° 0 mm 3 mps 754 mmHg 80%
    23:00 +16°C° 0 mm 2 mps 753 mmHg 85%

    Tomorrow, 24 May, Thursday

    Time Temperature Precipitation Wind Pressure Humidity
    00:00 +15°C° 0 mm 2 mps 753 mmHg 91%
    01:00 +15°C° 0 mm 2 mps 753 mmHg 92%
    02:00 +15°C° 0 mm 2 mps 753 mmHg 94%
    03:00 +14°C° 0 mm 2 mps 753 mmHg 96%
    04:00 +15°C° 0 mm 2 mps 753 mmHg 93%
    05:00 +16°C° 0 mm 2 mps 753 mmHg 89%
    06:00 +16°C° 0 mm 2 mps 753 mmHg 86%
    07:00 +18°C° 0 mm 2 mps 753 mmHg 79%
    08:00 +19°C° 0 mm 2 mps 753 mmHg 72%
    09:00 +20°C° 0 mm 3 mps 753 mmHg 66%
    10:00 +21°C° 0 mm 3 mps 753 mmHg 60%
    11:00 +22°C° 0 mm 3 mps 753 mmHg 55%
    12:00 +24°C° 0 mm 3 mps 752 mmHg 49%
    13:00 +24°C° 0 mm 3 mps 752 mmHg 49%
    14:00 +24°C° 0 mm 3 mps 752 mmHg 48%
    15:00 +24°C° 0 mm 3 mps 752 mmHg 48%
    16:00 +22°C° 0.3 mm 3 mps 752 mmHg 54%
    17:00 +21°C° 0.3 mm 3 mps 752 mmHg 61%
    18:00 +20°C° 0.3 mm 4 mps 752 mmHg 67%
    19:00 +18°C° 0 mm 3 mps 752 mmHg 72%
    20:00 +16°C° 0 mm 3 mps 752 mmHg 77%
    21:00 +15°C° 0 mm 2 mps 752 mmHg 82%
    22:00 +13°C° 0 mm 3 mps 752 mmHg 77%
    23:00 +12°C° 0 mm 3 mps 752 mmHg 73%

    Day after tomorrow, 25 May, Friday

    Time Temperature Precipitation Wind Pressure Humidity
    00:00 +11°C° 0 mm 4 mps 752 mmHg 68%
    01:00 +10°C° 0 mm 4 mps 752 mmHg 65%
    02:00 +8°C° 0 mm 4 mps 753 mmHg 62%
    03:00 +8°C° 0 mm 4 mps 753 mmHg 59%
    04:00 +8°C° 0 mm 4 mps 753 mmHg 58%
    05:00 +8°C° 0 mm 5 mps 753 mmHg 58%
    06:00 +8°C° 0 mm 5 mps 754 mmHg 57%
    07:00 +9°C° 0 mm 6 mps 754 mmHg 53%
    08:00 +10°C° 0 mm 6 mps 754 mmHg 49%
    09:00 +10°C° 0 mm 6 mps 754 mmHg 45%
    10:00 +11°C° 0 mm 7 mps 754 mmHg 43%
    11:00 +11°C° 0 mm 7 mps 755 mmHg 41%
    12:00 +12°C° 0 mm 7 mps 755 mmHg 39%
    13:00 +12°C° 0 mm 7 mps 755 mmHg 39%
    14:00 +12°C° 0 mm 7 mps 755 mmHg 38%
    15:00 +12°C° 0 mm 7 mps 755 mmHg 38%
    16:00 +11°C° 0 mm 6 mps 756 mmHg 40%
    17:00 +11°C° 0 mm 6 mps 756 mmHg 42%
    18:00 +10°C° 0 mm 5 mps 756 mmHg 45%
    19:00 +10°C° 0 mm 4 mps 757 mmHg 48%
    20:00 +7°C° 0 mm 4 mps 758 mmHg 51%
    21:00 +7°C° 0 mm 3 mps 758 mmHg 54%
    22:00 +5°C° 0 mm 3 mps 758 mmHg 54%
    23:00 +5°C° 0 mm 3 mps 759 mmHg 54%

    26 May, Saturday

    Time Temperature Precipitation Wind Pressure Humidity
    00:00 +4°C° 0 mm 3 mps 759 mmHg 55%
    01:00 +4°C° 0 mm 3 mps 760 mmHg 57%
    02:00 +3°C° 0 mm 3 mps 760 mmHg 58%
    03:00 +2°C° 0 mm 3 mps 761 mmHg 60%
    04:00 +3°C° 0 mm 3 mps 761 mmHg 57%
    05:00 +5°C° 0 mm 3 mps 761 mmHg 54%
    06:00 +7°C° 0 mm 3 mps 762 mmHg 51%
    07:00 +8°C° 0 mm 3 mps 762 mmHg 46%
    08:00 +10°C° 0 mm 3 mps 762 mmHg 41%
    09:00 +12°C° 0 mm 4 mps 763 mmHg 36%
    10:00 +13°C° 0 mm 4 mps 762 mmHg 35%
    11:00 +14°C° 0 mm 3 mps 762 mmHg 33%
    12:00 +16°C° 0 mm 3 mps 762 mmHg 32%
    13:00 +17°C° 0 mm 3 mps 761 mmHg 32%
    14:00 +17°C° 0 mm 3 mps 761 mmHg 32%
    15:00 +18°C° 0 mm 3 mps 761 mmHg 32%
    16:00 +17°C° 0 mm 3 mps 760 mmHg 35%
    17:00 +17°C° 0 mm 2 mps 760 mmHg 39%
    18:00 +17°C° 0 mm 2 mps 760 mmHg 42%
    19:00 +16°C° 0 mm 2 mps 760 mmHg 44%
    20:00 +15°C° 0 mm 2 mps 759 mmHg 46%
    21:00 +13°C° 0 mm 2 mps 759 mmHg 49%
    22:00 +13°C° 0 mm 2 mps 759 mmHg 51%
    23:00 +13°C° 0 mm 2 mps 759 mmHg 54%

    27 May, Sunday

    Time Temperature Precipitation Wind Pressure Humidity
    00:00 +12°C° 0 mm 3 mps 758 mmHg 57%
    01:00 +12°C° 0 mm 3 mps 758 mmHg 63%
    02:00 +12°C° 0 mm 2 mps 757 mmHg 69%
    03:00 +12°C° 0 mm 2 mps 757 mmHg 76%
    04:00 +13°C° 0 mm 2 mps 757 mmHg 75%
    05:00 +13°C° 0 mm 2 mps 756 mmHg 75%
    06:00 +14°C° 0 mm 2 mps 756 mmHg 74%
    07:00 +16°C° 0 mm 2 mps 756 mmHg 71%
    08:00 +17°C° 0 mm 2 mps 756 mmHg 69%
    09:00 +18°C° 0 mm 3 mps 755 mmHg 66%
    10:00 +20°C° 0 mm 3 mps 755 mmHg 57%
    11:00 +23°C° 0 mm 4 mps 754 mmHg 48%
    12:00 +26°C° 0 mm 5 mps 754 mmHg 39%
    13:00 +26°C° 0 mm 5 mps 753 mmHg 39%
    14:00 +26°C° 0 mm 5 mps 753 mmHg 39%
    15:00 +26°C° 0 mm 5 mps 752 mmHg 39%
    16:00 +25°C° 0 mm 4 mps 751 mmHg 45%
    17:00 +22°C° 0 mm 3 mps 751 mmHg 50%
    18:00 +21°C° 0 mm 3 mps 750 mmHg 56%
    19:00 +19°C° 0.3 mm 4 mps 750 mmHg 61%
    20:00 +18°C° 0.3 mm 4 mps 750 mmHg 67%
    21:00 +16°C° 0.3 mm 5 mps 750 mmHg 73%
    22:00 +14°C° 0.2 mm 5 mps 750 mmHg 79%
    23:00 +12°C° 0.2 mm 5 mps 750 mmHg 85%

    28 May, Monday

    Time Temperature Precipitation Wind Pressure Humidity
    00:00 +10°C° 0.2 mm 5 mps 750 mmHg 90%
    01:00 +10°C° 0 mm 4 mps 750 mmHg 91%
    02:00 +8°C° 0 mm 4 mps 750 mmHg 92%
    03:00 +8°C° 0 mm 4 mps 750 mmHg 92%
    04:00 +8°C° 0 mm 4 mps 751 mmHg 91%
    05:00 +8°C° 0 mm 4 mps 751 mmHg 89%
    06:00 +9°C° 0 mm 5 mps 751 mmHg 87%
    07:00 +10°C° 0 mm 5 mps 751 mmHg 79%
    08:00 +10°C° 0 mm 6 mps 751 mmHg 71%
    09:00 +11°C° 0 mm 6 mps 751 mmHg 63%
    10:00 +13°C° 0 mm 6 mps 750 mmHg 54%
    11:00 +14°C° 0 mm 6 mps 750 mmHg 45%
    12:00 +15°C° 0 mm 6 mps 750 mmHg 37%
    13:00 +15°C° 0 mm 6 mps 750 mmHg 39%
    14:00 +15°C° 0 mm 6 mps 750 mmHg 41%
    15:00 +14°C° 0 mm 6 mps 749 mmHg 42%
    16:00 +13°C° 0.2 mm 6 mps 749 mmHg 50%
    17:00 +12°C° 0.2 mm 5 mps 749 mmHg 57%
    18:00 +11°C° 0.2 mm 4 mps 748 mmHg 64%
    19:00 +10°C° 0.1 mm 4 mps 748 mmHg 67%
    20:00 +9°C° 0.1 mm 3 mps 748 mmHg 69%
    21:00 +8°C° 0.1 mm 3 mps 748 mmHg 72%
    22:00 +7°C° 0 mm 3 mps 749 mmHg 70%
    23:00 +5°C° 0 mm 3 mps 749 mmHg 69%
    Show more